Inquirer Daily News

Weather

Get conditions and forecasts for any City, State, ZIP code or Country:  
Trenton, NJ
on Friday, February 1, 2013

Friday
Previous Day Next Day
Daily Summary
 ActualAverageRecord
Temperature
Mean Temperature °F 32°F  
Max Temperature 31°F 40°F 67°F (2012)
Min Temperature 22°F 24°F -3°F (1920)
Degree Days
Heating Degree Days 38 33  
Month to date heating degree days 38 33  
Since 1 July heating degree days 2746 2979  
Cooling Degree Days 0 0  
Month to date cooling degree days 0 0  
Year to date cooling degree days 0 0  
Moisture
Dew Point 8°F   
Average Humidity 43    
Maximum Humidity 55    
Minimum Humidity 31    
Precipitation
Precipitation T in 0.07 in 2.01 in (1915)
Month to date precipitation T 0.07  
Year to date precipitation 2.82 3.23  
Wind
Wind Speed 10 mph   
Max Wind Speed 24 mph   
Max Gust Speed 31 mph   
Visibility 10 miles   
Events     

Key: T is trace of precipitation, MM is missing value
Source: NWS Daily Summary
Time(EST)TemperatureDew PointHumidity Pressure Visibility Wind DirectionWind SpeedGust SpeedPrecipitationEvents Conditions
12:53 AM 28.0°F 10.0°F 47% 29.83 in 10.0 miles WSW 9.2 mph - N/A   Scattered Clouds
1:53 AM 28.0°F 10.0°F 47% 29.83 in 10.0 miles West 8.1 mph - N/A   Clear
3:53 AM 28.0°F 10.9°F 49% 29.83 in 10.0 miles WSW 6.9 mph - N/A   Clear
4:53 AM 27.0°F 10.9°F 51% 29.83 in 10.0 miles West 5.8 mph - N/A   Mostly Cloudy
5:53 AM 28.0°F 12.0°F 51% 29.84 in 10.0 miles West 3.5 mph - N/A   Overcast
6:53 AM 28.9°F 12.9°F 51% 29.84 in 10.0 miles WNW 3.5 mph - N/A   Overcast
7:53 AM 28.9°F 12.9°F 51% 29.84 in 10.0 miles WNW 6.9 mph - N/A   Overcast
8:53 AM 28.9°F 14.0°F 54% 29.86 in 10.0 miles NNW 6.9 mph - N/A   Overcast
9:53 AM 27.0°F 12.0°F 53% 29.89 in 10.0 miles NNW 12.7 mph 23.0 mph 0.00 in   Overcast
10:53 AM 28.9°F 7.0°F 40% 29.90 in 10.0 miles NNW 17.3 mph 26.5 mph 0.00 in   Overcast
11:53 AM 28.9°F 6.1°F 38% 29.90 in 10.0 miles NNW 9.2 mph 26.5 mph N/A   Overcast
1:53 PM 30.0°F 5.0°F 35% 29.94 in 10.0 miles NNW 19.6 mph 28.8 mph N/A   Overcast
2:53 PM 30.0°F 3.9°F 33% 29.97 in 10.0 miles NNW 16.1 mph 24.2 mph N/A   Mostly Cloudy
3:53 PM 28.9°F 3.9°F 35% 30.01 in 10.0 miles NW 12.7 mph 20.7 mph N/A   Mostly Cloudy
4:53 PM 28.9°F 3.0°F 33% 30.05 in 10.0 miles WNW 15.0 mph 23.0 mph N/A   Mostly Cloudy
5:53 PM 27.0°F 5.0°F 39% 30.10 in 10.0 miles WNW 12.7 mph 23.0 mph N/A   Partly Cloudy
6:53 PM 26.1°F 3.9°F 39% 30.14 in 10.0 miles NW 10.4 mph - N/A   Clear
7:53 PM 25.0°F 3.9°F 41% 30.17 in 10.0 miles NW 9.2 mph 17.3 mph N/A   Clear
8:53 PM 24.1°F 3.9°F 42% 30.20 in 10.0 miles WNW 10.4 mph 17.3 mph N/A   Clear
9:53 PM 23.0°F 3.9°F 44% 30.23 in 10.0 miles WNW 6.9 mph - N/A   Clear
10:53 PM 23.0°F 5.0°F 46% 30.25 in 10.0 miles NW 8.1 mph 16.1 mph N/A   Clear
11:53 PM 21.9°F 5.0°F 48% 30.26 in 10.0 miles WNW 10.4 mph 17.3 mph N/A   Clear
Astronomy
Sunrise:07:08 AM (EST) Moon Rise:11:23 PM (EST)2/1
Sunset:05:18 PM (EST) Moon Set:09:39 AM (EST)2/1
Moon Phase
Feb. 01 Feb. 03 Feb. 10 Feb. 17 Feb. 25

Copyright © 2014 The Weather Underground, Inc.